Regional Weather Roundup
Issued by NWS

Home | Current Version | Previous Version | Graphics & Text | Print | Product List | Glossary On
Versions: 1 2 3 4 5 6 7 8 9 10 11 12 13 14 15 16 17 18 19 20 21 22 23 24 25 26 27 28 29 30 31 32 33 34 35 36 37 38 39 40 41 42 43 44 45 46 47 48 49 50
000
ASUS44 KMEG 041100
RWRTN
TENNESSEE HOURLY STATE WEATHER ROUNDUP
NATIONAL WEATHER SERVICE MEMPHIS TN
500 AM CST SUN DEC 04 2016

TNZ002-004-019-021-049-052-054-088>092-041200-
WEST TENNESSEE

CITY           SKY/WX    TMP DP  RH WIND       PRES   REMARKS
MEMPHIS INTL   LGT RAIN  43  42  97 E10       30.00F FOG
NWS MEMPHIS      N/A     42 N/A N/A MISG        N/A
JACKSON        CLOUDY    42  32  67 E7        30.05F
DYERSBURG      CLOUDY   N/A N/A N/A E6        30.05F
PARIS          CLOUDY    37  37 100 E9        30.07F WCI  31
$$

TNZ008-025-027-028-033-062-065-066-041200-
NORTH MIDDLE TENNESSEE

CITY           SKY/WX    TMP DP  RH WIND       PRES   REMARKS
NASHVILLE      CLOUDY    42  40  92 E7        30.11S
CLARKSVILLE    LGT RAIN  40  37  89 E5        30.12F FOG
SMYRNA         LGT RAIN  41  40  96 NE3       30.11F
CROSSVILLE     RAIN      38  36  92 SE9       30.14S FOG     WCI  31
$$

TNZ061-075-076-078-094-096-097-041200-
SOUTH MIDDLE TENNESSEE

CITY           SKY/WX    TMP DP  RH WIND       PRES   REMARKS
WINCHESTER     CLOUDY    41  39  93 SE8       30.09F
SHELBYVILLE    MOCLDY    45  43  93 SE9       30.07F
$$

TNZ017-018-042-046-047-041200-
NORTHEAST TENNESSEE

CITY           SKY/WX    TMP DP  RH WIND       PRES   REMARKS
TRI CITIES     LGT RAIN  37  35  92 NE3       30.21S FOG
$$

TNZ012-013-036-069-073-074-041200-
CENTRAL EAST TENNESSEE

CITY           SKY/WX    TMP DP  RH WIND       PRES   REMARKS
KNOXVILLE      LGT RAIN  39  37  92 NE7       30.19S WCI  34
OAK RIDGE      RAIN      40  37  89 E5        30.20F FOG
GATLINBURG     CLOUDY    37  36  93 CALM      30.19F
$$

TNZ083-085-099-041200-
SOUTHEAST TENNESSEE

CITY           SKY/WX    TMP DP  RH WIND       PRES   REMARKS
CHATTANOOGA    LGT RAIN  42  40  92 N9        30.18S FOG
$$

SKY/WX REPORTED AS FAIR MEANS FEW OR NO CLOUDS BELOW
12 THOUSAND FEET.





USA.gov is the U.S. government's official web portal to all federal, state and local government web resources and services.